Location: Claremont
(33.9858°S, 18.4575°E)
Time: 03:25:33
(UTC+00:00)

H-2A R/B - Pass Details

Date: 03 March 2021
Orbit: 732 x 837 km, 98.2° (Epoch: 21 April)

Event Time Altitude Azimuth Distance (km) Brightness Sun altitude
Rises 19:17:58 0° 184° (S) 3,274 5.7 -24.1°
Reaches altitude 10° 19:20:41 10° 198° (SSW) 2,358 5.1 -24.6°
Maximum altitude 19:24:42 23° 248° (WSW) 1,636 4.4 -25.4°
Drops below altitude 10° 19:28:48 10° 299° (WNW) 2,389 4.9 -26.1°
Sets 19:31:35 0° 313° (NW) 3,329 5.5 -26.6°
